Flag for Tanzania Weather past 2 weeks in Dodoma, Tanzania

Now
64 °F

Passing clouds.


Feels Like: 64 °F
Forecast: 61 / 84 °F
Wind: 12 mph from East

Location: Dodoma Airport

Current Time: Jul 29, 2015 at 10:01:27 AM

Latest Report: Jul 29, 2015 at 8:00 AM


Visibility: N/A

Pressure: 30.15 "Hg (26.42 "Hg at 1125m altitude)

Humidity: 83%

Dew point: 59 °F

Location of DodomaLocation

Historic Weather in Dodoma — Graph

°F

Dodoma temperature yesterday

Maximum temperature yesterday: 82 °F (at 2:00 PM)
Minimum temperature yesterday: 61 °F (at 7:00 AM)
Average temperature yesterday: 73 °F

Past Weeks' High & Low Weather Summary

 TemperatureHumidityPressure
High82 °F (Jul 17, 3:00 PM)88% (Jul 16, 7:00 AM)30.21 "Hg (Jul 16, 7:00 AM)
Low57 °F (Jul 16, 7:00 AM)26% (Jul 17, 3:00 PM)30.04 "Hg (Jul 17, 4:00 PM)
Average72 °F53%30.12 "Hg
* Reported Jul 15 11:00 AM — Jul 29 8:00 AM, Dodoma, Weather by CustomWeather, © 2015

Note: Actual official high and low records may vary slightly from our data, if they occured in-between our weather recording intervals... More about our weather records

Advertising

Dodoma weather history for previous 24 hours

 ConditionsComfort  
Time TempWeatherWind HumidityBarometerVisibility
8:00 AM
Wed, Jul 29
64 °FPassing clouds.12 mph83%30.15 "HgN/A
7:00 AM63 °FBroken clouds.6 mph88%30.12 "HgN/A
6:00 AM63 °FPassing clouds.9 mph88%30.09 "HgN/A
12:00 AM68 °FClear.13 mph60%30.12 "Hg10 mi
11:00 PM
Tue, Jul 28
70 °FClear.12 mph50%30.12 "Hg10 mi
10:00 PM70 °FPassing clouds.12 mph50%30.12 "HgN/A
9:00 PM72 °FPassing clouds.12 mph47%30.09 "HgN/A
8:00 PM73 °FPassing clouds.13 mph41%30.09 "HgN/A
7:00 PM75 °FPassing clouds.17 mph39%30.07 "HgN/A
5:00 PM81 °FPassing clouds.12 mph28%30.07 "HgN/A
4:00 PM82 °FPassing clouds.12 mph28%30.07 "HgN/A
3:00 PM81 °FPassing clouds.12 mph32%30.07 "HgN/A
2:00 PM82 °FPassing clouds.6 mph30%30.09 "HgN/A
1:00 PM81 °FScattered clouds.12 mph32%30.12 "HgN/A
12:00 PM79 °FScattered clouds.17 mph34%30.15 "HgN/A
10:00 AM72 °FSunny.12 mph47%30.18 "Hg10 mi
Weather by CustomWeather, © 2015

See weather overviewHow to use our weather pages